Location: Edson
(53.5864°N, 116.4322°W)
Time: 12:23:12
(UTC+00:00)

ISS - Visible Passes

Search period start: 01 December 2021 00:00
Search period end: 11 December 2021 00:00
Orbit: 417 x 423 km, 51.6° (Epoch: 01 December)

Date Brightness Start Highest point End Pass type
(mag) Time Alt. Az. Time Alt. Az. Time Alt. Az.
01 Dec -3.4 00:38:10 10° WSW 00:41:32 63° S 00:44:34 12° E visible
01 Dec -2.5 02:14:54 10° W 02:17:34 39° SW 02:17:34 39° SW visible
02 Dec -3.2 01:27:44 10° W 01:31:04 53° SSW 01:32:21 31° SE visible
02 Dec -0.4 03:04:47 10° W 03:05:21 13° WSW 03:05:21 13° WSW visible
03 Dec -3.3 00:40:33 10° W 00:43:55 60° S 00:47:13 10° ESE visible
03 Dec -1.9 02:17:26 10° W 02:20:12 28° SW 02:20:12 28° SW visible
04 Dec -2.4 01:30:10 10° W 01:33:20 36° SSW 01:35:10 20° SSE visible
05 Dec -2.7 00:42:56 10° W 00:46:12 44° SSW 00:49:28 10° SE visible
05 Dec -1.1 02:20:21 10° WSW 02:22:28 16° SW 02:23:16 15° SSW visible
06 Dec -1.3 01:32:48 10° W 01:35:26 21° SSW 01:38:04 10° SSE visible
07 Dec -1.6 00:45:24 10° W 00:48:22 28° SSW 00:51:18 10° SSE visible
08 Dec -0.4 01:36:25 10° WSW 01:37:20 11° SW 01:38:16 10° SSW visible
09 Dec -0.7 00:48:15 10° WSW 00:50:20 15° SW 00:52:24 10° S visible
